Weather in Sviritsa

Russia / Saint-Petersburg and Leningrad Oblast     60°27′56″N   32°54′47″E
temp.,
°C
wind,
m/s
gust,
m/s
humid.,
%
clouds,
%
prec.,
mm/h
press.,
hPa
HPBL,
m
21 april, wed
wed2100:00+4ese3771100 0.0 1017138
03:00+4ese2573100 0.0 1015110
06:00+4e2675100 0.0 1012166
09:00+2ne41197100 2.3 1009513
12:00+2ene4997100 3.2 1005515
15:00+2e3699100 5.9 1003340
18:00+2e0299100 0.9 1002274
21:00+2sw2399100 1.3 1001252
22 april, thu
thu2200:00+1sw4693100 0.3 1002574
03:00+1ssw3798100 0.6 1003341
06:00+1s3698100 0.7 1003293
09:00+2s2598100 1.4 1004172
12:00+7ssw358399 0.0 1005570
15:00+11sw36615 0.1 10061195
18:00+10s136765 0.1 100695
21:00+6se348547 0.1 100749
23 april, fri
fri2300:00+5ese4108844 0.0 1005177
03:00+6sse41195100 0.9 1005399
06:00+5sse3797100 0.1 1006269
09:00+7ssw3687100 0.1 1006437
12:00+8s3566100 0.1 1007882
15:00+7s3778100 1.3 1008748
18:00+7sse487613 0.5 1008710
21:00+4sse248798 1.2 100876
24 april, sat
sat2400:00+3sse2589100 0.0 100999
03:00+2sse2589100 0.0 100897
06:00+2sse2289100 0.0 100858
09:00+4sw1180100 0.0 1007268
12:00+5nw2176100 0.1 1007529
15:00+4wnw3277100 0.2 1006500
18:00+4nw2378100 0.0 1006223
21:00+2wnw118690 0.0 100510
25 april, sun
sun2500:00+1wsw11895 0.0 100410
03:000ssw1189100 0.0 100410
06:000s1186100 0.0 100412
09:00+4w1170100 0.0 1004332
12:00+5wnw3265100 0.0 1005763
15:00+4wnw3474100 0.0 1005423
18:00+3nw3474100 0.0 1005251
21:00+2wnw2581100 0.0 1005113